Alma, MI

2:15 AM EST on November 20, 2019 (GMT -0500)
Gratiot Community

Weather History for KAMN - June, 2019

Change the Weather History Date:

Tuesday, June 11, 2019

  Actual Average Record
Temperature  
Mean Temperature 61 °F -  
Max Temperature 77 °F 77 °F 93 °F (1999)
Min Temperature 45 °F 52 °F 34 °F (1972)
Degree Days  
Heating Degree Days 4    
Growing Degree Days 11 (Base 50)    
Moisture  
Dew Point 46 °F    
Average Humidity 61    
Maximum Humidity 95    
Minimum Humidity 27    
Precipitation  
Precipitation 0.00 in - - ()
Sea Level Pressure  
Sea Level Pressure 30.14 in    
Wind  
Wind Speed 2 mph (WSW)    
Max Wind Speed 10 mph    
Max Gust Speed 20 mph    
Visibility 10 miles    
Events      
Averages and records for this station are not official NWS values.
T = Trace of Precipitation, MM = Missing Value Source: NWS Daily Summary

Daily Weather History Graph

Daily Weather History Graph

Search for Another Location

Airport or City:

Astronomy

Jun. 11, 2019 Rise Set
Actual Time 5:58 AM EDT 9:18 PM EDT
Civil Twilight 5:22 AM EDT 9:54 PM EDT
Nautical Twilight 4:36 AM EDT 10:40 PM EDT
Astronomical Twilight 3:39 AM EDT 11:37 PM EDT
Moon 3:05 PM EDT (6/11) 2:53 AM EDT (6/11)
Length of Visible Light 16h 31m
Length of Day
15h 20m
Waxing Gibbous, 66% of the Moon is Illuminated
Jun 11
Waxing Gibbous
Jun 17
Full
Jun 25
Last Quarter
Jul 2
New
Jul 9
First Quarter

Hourly Weather History & Observations

Time (EDT) Temp. Dew Point Humidity Pressure Visibility Wind Dir Wind Speed Gust Speed Precip Events Conditions
12:19 AM 49.1 °F 46.8 °F 92% 30.12 in 10.0 mi Calm Calm - N/A   Clear
12:37 AM 49.1 °F 46.9 °F 92% 30.12 in 10.0 mi Calm Calm - N/A   Clear
12:55 AM 48.6 °F 46.4 °F 92% 30.11 in 10.0 mi Calm Calm - N/A   Clear
12:56 AM 48.6 °F 46.4 °F 92% 30.11 in 10.0 mi Calm Calm - N/A   Clear
1:15 AM 47.5 °F 45.7 °F 93% 30.11 in 10.0 mi Calm Calm - N/A   Clear
1:35 AM 48.2 °F 46.4 °F 93% 30.11 in 10.0 mi Calm Calm - N/A   Clear
1:58 AM 48.2 °F 46.4 °F 93% 30.12 in 4.0 mi Calm Calm - N/A   Clear
2:16 AM 48.6 °F 46.9 °F 94% 30.11 in 10.0 mi Calm Calm - N/A   Clear
2:35 AM 47.3 °F 45.5 °F 93% 30.13 in 10.0 mi West 4.6 mph - N/A   Clear
2:55 AM 49.8 °F 48.0 °F 94% 30.13 in 10.0 mi Calm Calm - N/A   Clear
3:19 AM 50.2 °F 48.0 °F 92% 30.12 in 10.0 mi Calm Calm - N/A   Clear
3:38 AM 47.1 °F 44.8 °F 92% 30.12 in 10.0 mi Calm Calm - N/A   Clear
3:56 AM 47.8 °F 45.9 °F 93% 30.12 in 10.0 mi SSW 3.5 mph - N/A   Clear
4:15 AM 47.5 °F 45.7 °F 93% 30.12 in 10.0 mi Calm Calm - N/A   Clear
4:35 AM 46.6 °F 44.8 °F 93% 30.12 in 10.0 mi South 4.6 mph - N/A   Clear
4:36 AM 46.8 °F 44.8 °F 93% 30.12 in 10.0 mi South 4.6 mph - N/A   Clear
4:59 AM 46.2 °F 44.4 °F 93% 30.12 in 10.0 mi Calm Calm - N/A   Clear
5:17 AM 45.1 °F 43.5 °F 94% 30.13 in 1.2 mi Calm Calm - N/A   Mist
5:35 AM 45.5 °F 43.9 °F 94% 30.13 in 10.0 mi Calm Calm - N/A   Clear
5:55 AM 46.6 °F 45.0 °F 94% 30.15 in 10.0 mi Calm Calm - N/A   Clear
5:56 AM 46.6 °F 45.0 °F 94% 30.15 in 10.0 mi Calm Calm - N/A   Clear
6:15 AM 46.9 °F 45.3 °F 94% 30.16 in 10.0 mi WSW 3.5 mph - N/A   Clear
6:19 AM 47.5 °F 46.0 °F 95% 30.16 in 10.0 mi WSW 3.5 mph - N/A   Clear
6:38 AM 48.2 °F 46.4 °F 93% 30.16 in 10.0 mi West 3.5 mph - N/A   Clear
6:56 AM 50.5 °F 48.7 °F 94% 30.17 in 10.0 mi SW 3.5 mph - N/A   Clear
7:15 AM 51.8 °F 50.0 °F 94% 30.18 in 10.0 mi WSW 3.5 mph - N/A   Clear
7:16 AM 51.8 °F 50.0 °F 94% 30.18 in 10.0 mi Calm Calm - N/A   Clear
7:35 AM 53.1 °F 50.7 °F 92% 30.18 in 10.0 mi Calm Calm - N/A   Clear
7:59 AM 55.8 °F 51.8 °F 87% 30.19 in 10.0 mi Calm Calm - N/A   Clear
8:17 AM 57.4 °F 51.6 °F 81% 30.19 in 10.0 mi West 3.5 mph - N/A   Clear
8:35 AM 59.0 °F 51.4 °F 76% 30.19 in 10.0 mi WSW 4.6 mph - N/A   Clear
8:36 AM 59.2 °F 51.4 °F 75% 30.19 in 10.0 mi West 4.6 mph - N/A   Clear
8:55 AM 61.0 °F 51.4 °F 71% 30.20 in 10.0 mi West 3.5 mph - N/A   Clear
8:56 AM 61.2 °F 51.6 °F 71% 30.20 in 10.0 mi WSW 3.5 mph - N/A   Clear
9:15 AM 62.6 °F 51.8 °F 68% 30.20 in 10.0 mi Calm Calm - N/A   Clear
9:38 AM 64.9 °F 49.5 °F 57% 30.20 in 10.0 mi West 5.8 mph - N/A   Clear
9:56 AM 66.2 °F 48.2 °F 52% 30.20 in 10.0 mi West 5.8 mph - N/A   Clear
10:15 AM 67.5 °F 46.6 °F 47% 30.20 in 10.0 mi West 5.8 mph - N/A   Clear
10:16 AM 67.5 °F 46.4 °F 47% 30.20 in 10.0 mi West 5.8 mph - N/A   Clear
10:35 AM 68.5 °F 47.7 °F 47% 30.19 in 10.0 mi West 5.8 mph - N/A   Clear
10:59 AM 69.1 °F 47.1 °F 45% 30.19 in 10.0 mi West 4.6 mph - N/A   Clear
11:16 AM 69.6 °F 45.9 °F 43% 30.19 in 10.0 mi Calm Calm - N/A   Clear
11:35 AM 70.7 °F 45.3 °F 40% 30.19 in 10.0 mi WSW 4.6 mph - N/A   Clear
11:36 AM 70.7 °F 44.8 °F 39% 30.19 in 10.0 mi WSW 3.5 mph - N/A   Clear
11:55 AM 70.5 °F 44.4 °F 39% 30.18 in 10.0 mi WNW 3.5 mph - N/A   Clear
11:56 AM 70.5 °F 45.0 °F 40% 30.18 in 10.0 mi West 3.5 mph - N/A   Clear
12:15 PM 72.5 °F 45.7 °F 38% 30.18 in 10.0 mi WSW 3.5 mph - N/A   Clear
12:20 PM 72.5 °F 45.1 °F 37% 30.18 in 10.0 mi Calm Calm - N/A   Clear
12:38 PM 72.5 °F 45.9 °F 39% 30.18 in 10.0 mi WSW 8.1 mph - N/A   Clear
12:56 PM 73.6 °F 45.5 °F 37% 30.18 in 10.0 mi West 8.1 mph - N/A   Clear
1:15 PM 73.8 °F 45.5 °F 36% 30.17 in 10.0 mi Calm Calm - N/A   Clear
1:35 PM 74.8 °F 45.3 °F 35% 30.16 in 10.0 mi West 5.8 mph - N/A   Clear
1:59 PM 75.4 °F 40.1 °F 28% 30.16 in 10.0 mi NW 3.5 mph - N/A   Clear
2:17 PM 75.9 °F 39.9 °F 27% 30.15 in 10.0 mi Calm Calm - N/A   Scattered Clouds
2:35 PM 76.5 °F 42.4 °F 30% 30.15 in 10.0 mi West 5.8 mph 19.6 mph N/A   Scattered Clouds
2:36 PM 76.6 °F 42.6 °F 30% 30.15 in 10.0 mi West 4.6 mph 19.6 mph N/A   Mostly Cloudy
2:55 PM 76.6 °F 42.1 °F 29% 30.14 in 10.0 mi WNW 8.1 mph - N/A   Scattered Clouds
3:15 PM 75.4 °F 41.9 °F 30% 30.14 in 10.0 mi WNW 10.4 mph - N/A   Scattered Clouds
3:38 PM 76.3 °F 41.4 °F 29% 30.14 in 10.0 mi WNW 5.8 mph - N/A   Scattered Clouds
3:56 PM 77.5 °F 41.5 °F 28% 30.13 in 10.0 mi WSW 6.9 mph - N/A   Clear
4:15 PM 75.6 °F 41.9 °F 30% 30.13 in 10.0 mi NW 8.1 mph - N/A   Scattered Clouds
4:16 PM 75.2 °F 41.9 °F 30% 30.13 in 10.0 mi WNW 8.1 mph - N/A   Scattered Clouds
4:35 PM 77.4 °F 41.2 °F 27% 30.12 in 10.0 mi West 3.5 mph - N/A   Scattered Clouds
4:59 PM 75.6 °F 42.6 °F 31% 30.11 in 10.0 mi West 8.1 mph - N/A   Scattered Clouds
5:17 PM 76.1 °F 41.7 °F 29% 30.11 in 10.0 mi WSW 8.1 mph - N/A   Clear
5:35 PM 77.0 °F 43.0 °F 30% 30.11 in 10.0 mi West 5.8 mph - N/A   Mostly Cloudy
5:36 PM 77.0 °F 43.3 °F 30% 30.11 in 10.0 mi West 6.9 mph - N/A   Mostly Cloudy
5:55 PM 77.9 °F 41.2 °F 27% 30.11 in 10.0 mi SW 9.2 mph - N/A   Mostly Cloudy
6:15 PM 75.2 °F 39.2 °F 27% 30.10 in 10.0 mi WSW 5.8 mph - N/A   Scattered Clouds
6:38 PM 75.9 °F 42.1 °F 30% 30.10 in 10.0 mi West 5.8 mph - N/A   Mostly Cloudy
6:56 PM 75.6 °F 41.5 °F 29% 30.09 in 10.0 mi WSW 3.5 mph - N/A   Scattered Clouds
7:15 PM 75.6 °F 40.5 °F 28% 30.09 in 10.0 mi SW 8.1 mph - N/A   Clear
7:16 PM 75.6 °F 40.3 °F 28% 30.09 in 10.0 mi SW 9.2 mph - N/A   Clear
7:35 PM 73.8 °F 40.6 °F 30% 30.09 in 10.0 mi SW 4.6 mph - N/A   Clear
7:59 PM 72.1 °F 41.2 °F 33% 30.09 in 10.0 mi SW 3.5 mph - N/A   Clear
8:16 PM 70.7 °F 43.0 °F 37% 30.09 in 10.0 mi SW 4.6 mph - N/A   Clear
8:35 PM 69.8 °F 44.2 °F 40% 30.09 in 10.0 mi SSW 3.5 mph - N/A   Clear
8:36 PM 69.8 °F 44.4 °F 40% 30.09 in 10.0 mi SSW 3.5 mph - N/A   Clear
8:55 PM 68.0 °F 49.5 °F 51% 30.09 in 10.0 mi Calm Calm - N/A   Clear
8:56 PM 67.6 °F 49.8 °F 53% 30.09 in 10.0 mi Calm Calm - N/A   Clear
9:15 PM 66.0 °F 52.2 °F 61% 30.09 in 10.0 mi Calm Calm - N/A   Clear
9:38 PM 63.7 °F 56.1 °F 76% 30.09 in 10.0 mi Calm Calm - N/A   Clear
9:56 PM 62.6 °F 54.5 °F 75% 30.09 in 10.0 mi Calm Calm - N/A   Clear
10:15 PM 62.1 °F 54.3 °F 76% 30.08 in 10.0 mi Calm Calm - N/A   Clear
10:35 PM 59.7 °F 52.2 °F 76% 30.09 in 10.0 mi Calm Calm - N/A   Clear
10:59 PM 57.0 °F 51.6 °F 82% 30.09 in 10.0 mi Calm Calm - N/A   Clear
11:17 PM 57.9 °F 51.1 °F 78% 30.09 in 10.0 mi Calm Calm - N/A   Clear
11:35 PM 57.0 °F 50.7 °F 79% 30.09 in 10.0 mi SE 3.5 mph - N/A   Clear
11:36 PM 56.7 °F 50.5 °F 80% 30.09 in 10.0 mi SE 3.5 mph - N/A   Clear
11:55 PM 55.4 °F 50.7 °F 84% 30.09 in 10.0 mi Calm Calm - N/A   Clear